CW2378 Weather Reports


time (UTC)temp
C
wind
direction
speed
KPH
gust
KPH
rain 1hr
cm
rain 24hr
cm
rain mn
cm
humidity
%
barometer
mb
20260510202719 28 70 8.0 19.3 0.00 0.18 0.03 67 1013.8
20260510202006 28 121 8.0 17.7 0.00 0.18 0.03 66 1013.9
20260510201005 29 110 4.8 19.3 0.00 0.18 0.03 67 1013.8
20260510200505 29 136 9.7 17.7 0.00 0.18 0.03 66 1013.6
20260510200005 29 146 8.0 24.1 0.00 0.28 0.03 67 1013.6
20260510195500 28 106 8.0 24.1 0.00 0.28 0.03 69 1013.6
20260510195005 28 89 12.9 22.5 0.00 0.28 0.03 69 1013.9
20260510194005 28 117 12.9 22.5 0.00 0.28 0.03 70 1013.8
20260510193505 28 161 8.0 19.3 0.00 0.28 0.03 71 1013.9
20260510192505 28 114 6.4 17.7 0.00 0.28 0.03 74 1014.1
20260510192005 27 149 8.0 17.7 0.00 0.28 0.03 73 1014.1
20260510191505 27 103 6.4 14.5 0.00 0.28 0.03 73 1014.1
20260510191006 27 132 3.2 14.5 0.00 0.28 0.03 73 1014.1
20260510190503 28 119 4.8 20.9 0.00 0.28 0.03 71 1014.2
20260510185005 28 117 11.3 19.3 0.00 0.41 0.03 70 1014.1
20260510184506 28 177 8.0 19.3 0.00 0.41 0.03 69 1014.0
20260510184005 28 159 6.4 17.7 0.00 0.41 0.03 70 1014.1
20260510183504 28 159 9.7 19.3 0.00 0.41 0.03 68 1014.1
20260510182506 28 181 4.8 14.5 0.00 0.41 0.03 70 1014.3
20260510182005 28 107 9.7 16.1 0.00 0.41 0.03 69 1014.4
20260510181505 28 150 4.8 16.1 0.00 0.41 0.03 71 1014.5
20260510180006 27 169 8.0 17.7 0.00 0.64 0.03 72 1014.8
20260510175505 27 67 6.4 16.1 0.00 0.64 0.03 73 1015.1
20260510175005 27 88 6.4 19.3 0.00 0.64 0.03 72 1015.0
20260510173006 27 83 4.8 16.1 0.00 0.64 0.03 74 1015.2
20260510172503 27 89 6.4 16.1 0.00 0.64 0.03 75 1015.2
20260510171505 27 63 4.8 19.3 0.00 0.64 0.03 74 1015.3
20260510171005 27 88 3.2 12.9 0.00 0.64 0.03 75 1015.3
20260510170504 27 46 4.8 14.5 0.00 0.64 0.03 76 1015.4
20260510165505 27 58 6.4 14.5 0.00 1.40 0.03 74 1015.4
20260510164501 27 108 1.6 14.5 0.00 1.40 0.03 76 1015.4
20260510164004 27 82 4.8 14.5 0.00 1.40 0.03 75 1015.4
20260510163504 27 63 4.8 11.3 0.00 1.40 0.03 78 1015.4
20260510163005 26 101 6.4 11.3 0.00 1.40 0.03 78 1015.4
20260510162505 26 69 4.8 16.1 0.00 1.40 0.03 80 1015.4
20260510162005 26 173 8.0 16.1 0.00 1.40 0.03 79 1015.4
20260510161501 26 43 4.8 11.3 0.00 1.40 0.03 79 1015.6
20260510160502 26 129 3.2 12.9 0.00 1.40 0.03 80 1015.4
20260510155505 25 54 3.2 16.1 0.00 1.96 0.03 83 1015.2
20260510155006 25 51 6.4 16.1 0.00 1.96 0.03 82 1015.2
20260510154506 25 90 6.4 14.5 0.00 1.96 0.03 83 1015.1
20260510154005 25 109 3.2 14.5 0.00 1.96 0.03 85 1015.2
20260510153505 25 134 4.8 17.7 0.00 1.96 0.03 85 1015.1
20260510153006 24 105 3.2 17.7 0.00 1.96 0.03 87 1015.3
20260510152505 24 55 8.0 16.1 0.00 1.96 0.03 88 1015.3
20260510152006 23 60 8.0 16.1 0.00 1.96 0.03 89 1015.3
20260510151505 23 30 8.0 16.1 0.00 1.96 0.03 89 1015.4
20260510151005 23 60 3.2 16.1 0.00 1.96 0.03 89 1015.4
20260510150006 23 21 6.4 16.1 0.00 1.96 0.03 93 1015.5
20260510145505 23 40 8.0 16.1 0.00 2.11 0.03 94 1015.5
20260510145005 22 43 4.8 16.1 0.00 2.11 0.03 95 1015.6
20260510144504 22 75 3.2 16.1 0.00 2.11 0.03 95 1015.5
20260510144005 22 67 9.7 16.1 0.00 2.11 0.03 96 1015.5
20260510143504 22 355 9.7 16.1 0.00 2.11 0.03 96 1015.4
20260510143006 22 56 6.4 14.5 0.00 2.11 0.03 96 1015.4
20260510142505 21 63 6.4 16.1 0.00 2.11 0.03 97 1015.3
20260510142005 21 94 6.4 16.1 0.00 2.11 0.03 97 1015.3
20260510141502 21 63 6.4 12.9 0.00 2.11 0.03 97 1015.3
20260510141005 21 32 6.4 16.1 0.00 2.11 0.03 97 1015.3
20260510140504 21 69 4.8 16.1 0.00 2.11 0.03 97 1015.2
20260510140006 21 59 4.8 19.3 0.00 2.11 0.03 97 1015.0
20260510135505 21 88 4.8 19.3 0.00 3.56 0.03 97 1015.1
20260510135005 21 89 3.2 8.0 0.00 3.56 0.03 97 1015.3
20260510134504 21 57 1.6 11.3 0.00 3.56 0.03 97 1015.2
20260510134005 21 56 4.8 11.3 0.00 3.56 0.03 97 1015.2
20260510133505 21 67 4.8 14.5 0.00 3.56 0.03 97 1015.2
20260510132006 20 59 1.6 9.7 0.00 3.56 0.03 97 1015.0
20260510131505 20 61 3.2 11.3 0.00 3.56 0.03 97 1014.9
20260510131005 20 54 6.4 11.3 0.00 3.56 0.03 97 1014.8
20260510130505 20 34 4.8 14.5 0.00 3.56 0.03 97 1014.8
20260510130007 20 55 8.0 14.5 0.00 3.56 0.03 97 1014.6
20260510125505 20 61 4.8 12.9 0.00 3.56 0.03 97 1014.5
20260510124505 20 28 4.8 9.7 0.00 3.56 0.03 97 1014.4
20260510124006 20 79 1.6 6.4 0.00 3.56 0.03 97 1014.3
20260510123502 20 79 1.6 8.0 0.00 3.56 0.03 97 1014.2
20260510123007 20 80 3.2 9.7 0.00 3.56 0.03 97 1014.0
20260510122501 20 80 1.6 9.7 0.00 3.56 0.03 97 1014.0
20260510122005 20 74 1.6 9.7 0.00 3.56 0.03 96 1013.9
20260510121503 20 74 3.2 11.3 0.00 3.56 0.03 97 1014.0
20260510121005 20 71 3.2 9.7 0.00 3.56 0.03 97 1013.8
20260510120005 19 65 1.6 8.0 0.00 3.56 0.03 97 1013.8
20260510115504 19 52 3.2 8.0 0.00 3.56 0.03 97 1013.8
20260510114501 19 68 0.0 6.4 0.00 3.56 0.03 96 1013.6
20260510114005 19 68 1.6 11.3 0.00 3.56 0.03 96 1013.6
20260510113005 19 85 1.6 9.7 0.00 3.56 0.03 96 1013.1
20260510112505 19 85 1.6 12.9 0.00 3.56 0.03 96 1013.2
20260510112006 19 83 6.4 12.9 0.00 3.56 0.03 96 1013.1
20260510111505 19 72 1.6 8.0 0.00 3.56 0.03 97 1013.0
20260510111005 19 70 3.2 8.0 0.00 3.56 0.03 97 1012.9
20260510110504 19 70 3.2 8.0 0.00 3.56 0.03 97 1012.9
20260510110005 19 72 3.2 8.0 0.00 3.58 0.03 97 1012.7
20260510105505 19 72 3.2 6.4 0.00 3.58 0.03 97 1012.7
20260510105005 19 71 1.6 6.4 0.00 3.58 0.03 97 1012.6
20260510104500 19 71 3.2 8.0 0.00 3.58 0.03 97 1012.5
20260510104005 19 69 0.0 8.0 0.00 3.58 0.03 97 1012.5
20260510103502 19 67 3.2 8.0 0.00 3.58 0.03 97 1012.3
20260510103004 19 66 3.2 6.4 0.00 3.58 0.03 97 1012.0
20260510102500 19 66 3.2 6.4 0.00 3.58 0.03 97 1012.1
20260510102005 19 64 0.0 1.6 0.03 3.58 0.03 97 1012.0
20260510101503 19 63 0.0 4.8 0.03 3.58 0.03 97 1012.0
20260510101004 19 63 1.6 4.8 0.03 3.58 0.03 97 1011.9
20260510100501 19 63 0.0 8.0 0.03 3.58 0.03 97 1011.8
20260510100007 19 63 0.0 8.0 0.03 3.58 0.03 97 1011.7
20260510095503 19 61 4.8 8.0 0.03 3.58 0.03 96 1011.7
20260510095005 19 57 3.2 8.0 0.03 3.58 0.03 96 1011.8
20260510094504 19 56 0.0 8.0 0.03 3.58 0.03 96 1011.8
20260510094005 19 49 0.0 0.0 0.03 3.58 0.03 97 1011.8
20260510093505 19 49 0.0 0.0 0.03 3.58 0.03 96 1011.8
20260510093006 19 50 0.0 0.0 0.03 3.58 0.03 96 1011.8
20260510092505 19 50 0.0 4.8 0.03 3.58 0.03 96 1011.7
20260510092005 19 46 0.0 6.4 0.00 3.56 0.00 97 1011.7
20260510091504 19 46 3.2 9.7 0.00 3.56 0.00 96 1011.6
20260510091005 19 42 3.2 9.7 0.00 3.56 0.00 96 1011.6
20260510090505 19 44 4.8 9.7 0.00 3.56 0.00 96 1011.5
20260510085501 19 43 4.8 6.4 0.00 3.56 0.00 97 1011.6
20260510085004 19 51 3.2 6.4 0.00 3.56 0.00 96 1011.6
20260510084500 18 50 3.2 9.7 0.00 3.56 0.00 97 1011.5
20260510084005 18 50 6.4 9.7 0.00 3.56 0.00 97 1011.6
20260510083505 18 55 3.2 8.0 0.00 3.56 0.00 97 1011.7
20260510083005 18 43 3.2 6.4 0.00 3.56 0.00 97 1011.6
20260510082500 17 42 0.0 6.4 0.00 3.56 0.00 96 1011.7
20260510081501 17 42 0.0 0.0 0.00 3.56 0.00 96 1011.4
20260510081005 17 42 0.0 0.0 0.00 3.56 0.00 96 1011.4
20260510080500 17 42 0.0 0.0 0.00 3.56 0.00 96 1011.3
20260510075005 18 42 0.0 0.0 0.00 3.56 0.00 96 1011.4
20260510074503 18 42 0.0 0.0 0.00 3.56 0.00 96 1011.4
20260510074005 18 42 0.0 0.0 0.00 3.56 0.00 96 1011.3
20260510073006 18 42 0.0 3.2 0.00 3.56 0.00 96 1011.2
20260510072501 18 42 1.6 3.2 0.00 3.56 0.00 96 1011.1
20260510072005 18 42 0.0 4.8 0.00 3.56 0.00 96 1011.0
20260510071505 18 42 0.0 6.4 0.00 3.56 0.00 96 1010.8
20260510071005 18 42 3.2 6.4 0.00 3.56 0.00 96 1010.9
20260510070500 18 36 0.0 0.0 0.00 3.56 0.00 96 1011.1
20260510070005 18 35 0.0 0.0 0.00 3.56 0.00 96 1011.2
20260510065004 18 36 0.0 0.0 0.00 3.56 0.00 96 1011.3
20260510064500 18 36 0.0 0.0 0.00 3.56 0.00 96 1011.2
20260510064005 18 36 0.0 0.0 0.00 3.56 0.00 96 1011.3
20260510063005 18 36 0.0 0.0 0.00 3.56 0.00 96 1011.1
20260510062501 18 36 0.0 6.4 0.00 3.56 0.00 96 1011.2
20260510062006 18 36 3.2 6.4 0.00 3.56 0.00 96 1011.0
20260510061500 18 36 4.8 6.4 0.00 3.56 0.00 96 1011.2
20260510061005 18 121 0.0 0.0 0.00 3.56 0.00 96 1011.2
20260510060500 18 122 0.0 0.0 0.00 3.56 0.00 96 1011.2
20260510060006 18 122 0.0 0.0 0.00 3.56 0.00 96 1011.3
20260510055504 18 122 0.0 0.0 0.00 3.56 0.00 96 1011.2
20260510055006 18 122 0.0 0.0 0.00 3.56 0.00 96 1011.3
20260510054505 18 122 0.0 0.0 0.00 3.56 0.00 96 1011.4
20260510053505 19 122 0.0 0.0 0.00 3.56 0.00 96 1010.9
20260510053006 19 122 0.0 0.0 0.00 3.56 0.00 96 1010.9
20260510052506 19 122 0.0 0.0 0.00 3.56 0.00 96 1010.9
20260510051505 19 122 0.0 9.7 0.00 3.56 0.00 96 1011.0
20260510051005 19 121 1.6 11.3 0.00 3.56 0.00 96 1010.8
20260510050505 19 127 4.8 11.3 0.00 3.56 0.00 96 1010.9
20260510050009 19 132 3.2 8.0 0.00 3.56 0.00 96 1011.1
20260510045504 19 139 1.6 4.8 0.00 3.56 3.56 96 1011.2
20260510045006 20 139 0.0 6.4 0.00 3.56 3.56 96 1011.1
20260510044505 20 138 1.6 6.4 0.00 3.56 3.56 96 1011.0
20260510044006 20 139 1.6 6.4 0.00 3.56 3.56 96 1010.9
20260510043505 20 136 1.6 11.3 0.00 3.56 3.56 96 1011.4
20260510043006 20 138 3.2 11.3 0.00 3.56 3.56 96 1011.4
20260510042505 20 132 3.2 8.0 0.00 3.56 3.56 96 1011.5
20260510042006 20 118 1.6 9.7 0.00 3.56 3.56 96 1011.5
20260510041505 20 157 1.6 14.5 0.00 3.56 3.56 96 1011.2
20260510041005 20 159 3.2 14.5 0.00 3.56 3.56 96 1010.9
20260510040504 20 153 6.4 16.1 0.00 3.56 3.56 96 1010.9
20260510040005 20 166 8.0 17.7 0.00 3.56 3.56 96 1010.9
20260510035505 19 144 9.7 17.7 0.00 3.56 3.56 97 1011.0
20260510035007 19 156 9.7 12.9 0.00 3.56 3.56 97 1011.3
20260510034505 19 162 8.0 14.5 0.00 3.56 3.56 96 1011.7
20260510034006 19 153 6.4 12.9 0.00 3.56 3.56 96 1011.8
20260510033504 19 171 6.4 12.9 0.00 3.56 3.56 96 1012.0
20260510033006 19 161 6.4 9.7 0.00 3.56 3.56 96 1012.1
20260510032006 19 179 4.8 6.4 0.00 3.56 3.56 96 1012.0
20260510031505 19 182 1.6 4.8 0.00 3.56 3.56 96 1012.1
20260510031005 19 182 1.6 4.8 0.00 3.56 3.56 96 1012.1
20260510030505 19 182 0.0 4.8 0.00 3.56 3.56 96 1012.1
20260510030006 19 182 0.0 0.0 0.00 3.56 3.56 96 1012.1
20260510025505 19 182 0.0 0.0 0.00 3.56 3.56 96 1012.2
20260510025006 19 182 0.0 1.6 0.00 3.56 3.56 96 1012.0
20260510024506 19 182 0.0 6.4 0.00 3.56 3.56 96 1012.1
20260510023505 19 183 4.8 8.0 0.00 3.56 3.56 96 1011.9
20260510023006 19 170 1.6 4.8 0.00 3.56 3.56 96 1011.7
20260510022505 19 170 3.2 4.8 0.00 3.56 3.56 96 1011.4
20260510022005 19 170 1.6 6.4 0.00 3.56 3.56 96 1011.5
20260510021506 19 170 3.2 6.4 0.00 3.56 3.56 96 1011.3
20260510020504 19 169 1.6 4.8 0.00 3.56 3.56 96 1011.4
20260510015505 19 176 0.0 6.4 0.00 3.56 3.56 96 1011.2
20260510015005 19 177 3.2 6.4 0.00 3.56 3.56 96 1011.4
20260510014505 19 159 3.2 9.7 0.00 3.56 3.56 96 1011.2
20260510014006 19 161 4.8 14.5 0.00 3.56 3.56 96 1011.2
20260510013505 19 156 4.8 14.5 0.00 3.56 3.56 96 1011.0
20260510012505 20 150 4.8 11.3 0.03 3.56 3.56 96 1010.9
20260510012007 20 174 6.4 11.3 0.03 3.56 3.56 96 1010.9
20260510011506 20 157 4.8 12.9 0.03 3.56 3.56 97 1010.8
20260510011006 20 159 6.4 14.5 0.03 3.56 3.56 96 1010.7
20260510010505 20 137 4.8 14.5 0.03 3.56 3.56 97 1010.7
20260510010005 20 122 4.8 14.5 0.03 3.56 3.56 97 1010.8
20260510005503 20 133 4.8 12.9 0.03 3.56 3.56 97 1010.8
20260510005005 20 146 4.8 14.5 0.03 3.56 3.56 97 1010.9
20260510004505 20 119 8.0 14.5 0.03 3.56 3.56 97 1010.9
20260510004004 20 165 4.8 12.9 0.03 3.56 3.56 97 1010.9
20260510003005 20 160 6.4 11.3 0.03 3.56 3.56 97 1010.8
20260510002504 20 155 4.8 9.7 0.00 3.53 3.53 97 1010.6
20260510001505 20 161 3.2 9.7 0.03 3.53 3.53 97 1010.7
20260510001005 20 162 4.8 9.7 0.03 3.53 3.53 97 1010.8
20260510000008 20 157 3.2 8.0 0.05 3.53 3.53 97 1010.7
20260509235505 20 157 3.2 9.7 0.08 3.53 3.53 97 1010.6
20260509235005 20 157 4.8 9.7 0.10 3.53 3.53 97 1010.9
20260509234505 20 159 3.2 9.7 0.10 3.53 3.53 97 1010.8
20260509234006 20 144 3.2 8.0 0.10 3.53 3.53 97 1010.7
20260509233504 20 139 4.8 14.5 0.10 3.53 3.53 97 1010.6
20260509233006 20 153 6.4 14.5 0.10 3.53 3.53 97 1010.7
20260509232505 20 154 4.8 11.3 0.10 3.53 3.53 97 1010.7
20260509232006 20 140 1.6 11.3 0.10 3.53 3.53 97 1010.7
20260509231506 20 150 3.2 9.7 0.08 3.51 3.51 97 1011.0
20260509230504 20 153 1.6 14.5 0.08 3.51 3.51 97 1010.9
20260509230007 20 180 4.8 14.5 0.05 3.48 3.48 97 1010.8
20260509225506 20 186 6.4 14.5 0.03 3.48 3.45 97 1010.8
20260509225006 20 175 8.0 14.5 0.00 3.45 3.43 97 1011.0
20260509224505 20 182 4.8 9.7 0.03 3.45 3.43 97 1010.9
20260509224005 20 171 4.8 9.7 0.03 3.45 3.43 97 1010.5
20260509223505 20 169 4.8 9.7 0.03 3.45 3.43 97 1010.5
20260509223005 20 167 4.8 11.3 0.03 3.45 3.43 97 1010.5
20260509222505 20 187 6.4 9.7 0.03 3.45 3.43 97 1010.5
20260509222005 20 184 3.2 6.4 0.03 3.45 3.43 97 1010.2
20260509221505 20 191 1.6 4.8 0.03 3.45 3.43 97 1010.1
20260509221004 20 192 0.0 4.8 0.03 3.45 3.43 97 1010.0
20260509220505 20 192 3.2 4.8 0.03 3.45 3.43 97 1009.8
20260509220006 20 192 0.0 0.0 0.03 3.58 3.43 97 1010.1
20260509215005 20 192 0.0 8.0 0.03 3.58 3.43 97 1010.4
20260509214505 20 192 0.0 11.3 0.00 3.56 3.40 97 1010.4
20260509214005 20 198 4.8 11.3 0.00 3.56 3.40 97 1010.6
20260509213503 20 185 4.8 12.9 0.00 3.56 3.40 97 1010.6
20260509213006 20 192 8.0 16.1 0.00 3.56 3.40 97 1010.4
20260509212505 20 171 9.7 16.1 0.00 3.56 3.40 97 1010.1
20260509212004 20 167 8.0 14.5 0.00 3.56 3.40 97 1010.0
20260509211501 20 140 6.4 11.3 0.00 3.56 3.40 97 1010.0
20260509210504 20 150 4.8 14.5 0.00 3.56 3.40 97 1009.8
20260509210005 20 158 4.8 14.5 0.00 5.54 3.40 97 1009.7
20260509205005 20 122 3.2 11.3 0.03 5.54 3.40 97 1009.7
20260509204006 20 113 8.0 14.5 0.05 5.54 3.40 97 1009.9
20260509203501 20 167 6.4 14.5 0.05 5.54 3.40 97 1009.9
20260509203004 20 119 6.4 14.5 0.05 5.54 3.40 97 1009.9